Location: Bednik
(45.3500°N, 16.3833°E)
Time: 08:09:25
(UTC+00:00)

Cosmos 405 Rocket - Pass Details

Date: 08 August 2020
Orbit: 490 x 553 km, 81.3° (Epoch: 26 September)

Event Time Altitude Azimuth Distance (km) Brightness Sun altitude
Exits shadow 20:48:00 77° 255° (WSW) 510 2.6 -21.9°
Maximum altitude 20:48:06 79° 280° (W) 509 2.6 -21.9°
Drops below altitude 10° 20:51:50 10° 8° (N) 1,706 6.0 -22.3°
Sets 20:53:59 0° 10° (N) 2,601 7.0 -22.5°
